KE5VT Weather Reports


Display with metric or nautical units.
time (UTC)temp
F
wind
direction
speed
MPH
gust
MPH
rain 1hr
in
rain 24hr
in
rain mn
in
humidity
%
barometer
mb
20260505073338 58 147 0.0 0.0 0.00 0.00 0.00 75 1011.5
20260505072834 58 133 0.0 0.0 0.00 0.00 0.00 74 1011.7
20260505072330 58 282 0.0 0.0 0.00 0.00 0.00 74 1011.6
20260505071826 58 135 0.0 0.0 0.00 0.00 0.00 73 1011.5
20260505071323 58 89 0.0 0.0 0.00 0.00 0.00 73 1011.7
20260505070821 59 139 0.0 0.0 0.00 0.00 0.00 73 1011.6
20260505070318 59 179 0.0 0.0 0.00 0.00 0.00 72 1011.7
20260505065813 59 135 0.0 0.0 0.00 0.00 0.00 72 1011.5
20260505065310 59 150 0.0 0.0 0.00 0.00 0.00 71 1011.7
20260505064807 59 166 0.0 0.0 0.00 0.00 0.00 71 1011.5
20260505064304 59 158 0.0 0.0 0.00 0.00 0.00 71 1011.6
20260505063802 59 311 0.0 0.0 0.00 0.00 0.00 70 1011.7
20260505063258 59 143 0.0 0.0 0.00 0.00 0.00 71 1011.4
20260505062754 59 296 0.0 2.0 0.00 0.00 0.00 70 1011.6
20260505062252 59 286 1.0 2.0 0.00 0.00 0.00 70 1011.5
20260505061749 59 157 0.0 0.0 0.00 0.00 0.00 70 1011.6
20260505061247 59 200 0.0 0.0 0.00 0.00 0.00 70 1011.7
20260505060744 59 175 0.0 0.0 0.00 0.00 0.00 70 1011.8
20260505060241 59 164 0.0 0.0 0.00 0.00 0.00 70 1011.7
20260505055736 59 162 0.0 0.0 0.00 0.00 0.00 69 1011.8
20260505055233 59 139 0.0 0.0 0.00 0.00 0.00 69 1011.7
20260505054730 60 169 0.0 0.0 0.00 0.00 0.00 68 1011.7
20260505054228 60 160 0.0 0.0 0.00 0.00 0.00 68 1011.7
20260505053726 60 162 0.0 0.0 0.00 0.00 0.00 68 1011.7
20260505053222 60 143 0.0 0.0 0.00 0.00 0.00 67 1011.8
20260505052719 60 143 0.0 0.0 0.00 0.00 0.00 66 1011.9
20260505052216 60 160 0.0 0.0 0.00 0.00 0.00 66 1012.0
20260505051713 61 135 0.0 0.0 0.00 0.00 0.00 65 1011.8
20260505051211 61 145 0.0 0.0 0.00 0.00 0.00 65 1012.0
20260505050709 61 157 0.0 0.0 0.00 0.00 0.00 64 1011.9
20260505050207 61 200 0.0 0.0 0.00 0.00 0.00 63 1012.1
20260505041642 62 165 0.0 0.0 0.00 0.00 0.00 56 1012.0
20260505041140 63 139 0.0 0.0 0.00 0.00 0.00 55 1012.0
20260505040636 63 144 0.0 0.0 0.00 0.00 0.00 55 1012.2
20260505040134 63 148 0.0 0.0 0.00 0.00 0.00 54 1012.0
20260505035630 63 155 0.0 0.0 0.00 0.00 0.00 53 1011.9
20260505035126 63 146 0.0 0.0 0.00 0.00 0.00 53 1011.9
20260505034623 64 136 0.0 0.0 0.00 0.00 0.00 54 1012.0
20260505034120 64 142 0.0 0.0 0.00 0.00 0.00 52 1012.0
20260505033617 64 141 0.0 0.0 0.00 0.00 0.00 52 1012.0
20260505033115 64 152 0.0 0.0 0.00 0.00 0.00 51 1012.0
20260505032613 65 166 0.0 0.0 0.00 0.00 0.00 50 1011.9
20260505032109 65 149 0.0 0.0 0.00 0.00 0.00 50 1012.0
20260505031606 65 146 0.0 0.0 0.00 0.00 0.00 49 1011.8
20260505031102 65 144 0.0 0.0 0.00 0.00 0.00 50 1011.8
20260505030600 66 140 0.0 0.0 0.00 0.00 0.00 49 1011.9
20260505030055 66 159 0.0 0.0 0.00 0.00 0.00 48 1011.9
20260505025551 66 222 0.0 0.0 0.00 0.00 0.00 48 1011.9
20260505025051 66 163 0.0 0.0 0.00 0.00 0.00 48 1012.0
20260505024547 66 151 0.0 0.0 0.00 0.00 0.00 47 1011.9
20260505024044 66 141 0.0 0.0 0.00 0.00 0.00 47 1011.8
20260505023541 67 144 0.0 0.0 0.00 0.00 0.00 46 1011.9
20260505023039 67 147 0.0 0.0 0.00 0.00 0.00 45 1012.1
20260505022536 67 155 0.0 0.0 0.00 0.00 0.00 44 1011.9
20260505022033 68 135 0.0 0.0 0.00 0.00 0.00 44 1011.8
20260505021530 68 155 0.0 0.0 0.00 0.00 0.00 43 1011.8
20260505021027 68 148 0.0 0.0 0.00 0.00 0.00 43 1011.7
20260505020526 69 158 0.0 0.0 0.00 0.00 0.00 42 1011.5
20260505020024 69 314 1.0 4.0 0.00 0.00 0.00 41 1011.5
20260505015521 69 280 2.0 3.0 0.00 0.00 0.00 41 1011.5
20260505015018 69 225 0.0 0.0 0.00 0.00 0.00 40 1011.5
20260505014514 70 252 2.0 4.0 0.00 0.00 0.00 40 1011.4
20260505014012 70 196 0.0 0.0 0.00 0.00 0.00 39 1011.2
20260505013509 70 333 0.0 0.0 0.00 0.00 0.00 39 1011.1
20260505013006 70 166 0.0 0.0 0.00 0.00 0.00 39 1011.4
20260505012504 70 179 0.0 0.0 0.00 0.00 0.00 38 1011.2
20260505012001 70 150 0.0 0.0 0.00 0.00 0.00 38 1011.1
20260505011456 70 174 0.0 0.0 0.00 0.00 0.00 38 1011.0
20260505010954 70 158 0.0 0.0 0.00 0.00 0.00 39 1011.1
20260505010449 70 153 0.0 0.0 0.00 0.00 0.00 37 1011.0
20260505005945 70 151 0.0 0.0 0.00 0.00 0.00 39 1010.8
20260505005442 70 157 0.0 0.0 0.00 0.00 0.00 39 1010.9
20260505004940 70 153 0.0 0.0 0.00 0.00 0.00 38 1010.7
20260505004436 71 176 0.0 0.0 0.00 0.00 0.00 38 1010.7
20260505003933 71 330 0.0 0.0 0.00 0.00 0.00 36 1010.6
20260505003431 71 330 0.0 0.0 0.00 0.00 0.00 36 1010.5
20260505002927 71 277 0.0 1.0 0.00 0.00 0.00 36 1010.7
20260505002423 72 158 0.0 0.0 0.00 0.00 0.00 37 1010.5
20260505001922 72 160 0.0 0.0 0.00 0.00 0.00 36 1010.7
20260505001419 72 155 0.0 0.0 0.00 0.00 0.00 35 1010.6
20260505000916 73 143 0.0 0.0 0.00 0.00 0.00 35 1010.6
20260505000414 73 148 0.0 0.0 0.00 0.00 0.00 35 1010.6
20260504235910 73 128 0.0 0.0 0.00 0.00 0.00 35 1010.7
20260504235408 73 145 0.0 0.0 0.00 0.00 0.00 35 1010.6
20260504234903 74 133 0.0 0.0 0.00 0.00 0.00 34 1010.3
20260504234401 74 142 0.0 0.0 0.00 0.00 0.00 34 1010.3
20260504233857 74 139 0.0 0.0 0.00 0.00 0.00 35 1010.1
20260504233353 75 126 0.0 0.0 0.00 0.00 0.00 35 1010.3
20260504232850 75 145 2.0 6.0 0.00 0.00 0.00 34 1010.3
20260504232347 75 148 0.0 0.0 0.00 0.00 0.00 34 1010.1
20260504231844 75 145 0.0 0.0 0.00 0.00 0.00 34 1010.1
20260504231341 76 250 0.0 0.0 0.00 0.00 0.00 33 1010.2
20260504230837 76 126 4.0 7.0 0.00 0.00 0.00 32 1010.0
20260504230335 76 298 3.0 4.0 0.00 0.00 0.00 32 1010.0
20260504225833 77 164 0.0 0.0 0.00 0.00 0.00 31 1009.9
20260504225329 77 239 0.0 1.0 0.00 0.00 0.00 31 1010.0
20260504224827 77 143 1.0 1.0 0.00 0.00 0.00 30 1010.1
20260504224324 77 105 0.0 1.0 0.00 0.00 0.00 30 1010.1
20260504223820 78 295 2.0 4.0 0.00 0.00 0.00 30 1010.0
20260504223316 78 288 0.0 1.0 0.00 0.00 0.00 30 1010.1
20260504222813 78 259 4.0 6.0 0.00 0.00 0.00 30 1010.1
20260504222309 78 270 2.0 6.0 0.00 0.00 0.00 30 1010.1
20260504221808 80 279 4.0 6.0 0.00 0.00 0.00 30 1009.8
20260504221304 80 118 0.0 0.0 0.00 0.00 0.00 29 1009.9
20260504220801 80 186 0.0 0.0 0.00 0.00 0.00 31 1010.2
20260504220258 80 303 2.0 3.0 0.00 0.00 0.00 30 1010.1
20260504215755 81 175 0.0 0.0 0.00 0.00 0.00 30 1010.2
20260504215251 80 146 0.0 0.0 0.00 0.00 0.00 30 1010.1
20260504214747 82 291 1.0 4.0 0.00 0.00 0.00 28 1010.0
20260504214244 81 121 0.0 0.0 0.00 0.00 0.00 28 1010.1
20260504213741 80 143 0.0 0.0 0.00 0.00 0.00 28 1010.1
20260504213237 80 243 4.0 6.0 0.00 0.00 0.00 27 1009.9
20260504212734 80 112 0.0 0.0 0.00 0.00 0.00 28 1010.1
20260504212231 80 244 0.0 0.0 0.00 0.00 0.00 28 1010.1
20260504211729 80 196 0.0 0.0 0.00 0.00 0.00 28 1009.9
20260504211224 79 327 3.0 6.0 0.00 0.00 0.00 28 1010.1
20260504210722 79 258 6.0 7.0 0.00 0.00 0.00 27 1010.1
20260504210219 82 203 0.0 0.0 0.00 0.00 0.00 25 1010.2
20260504205716 82 91 0.0 0.0 0.00 0.00 0.00 26 1010.3
20260504205214 81 256 4.0 4.0 0.00 0.00 0.00 25 1010.2
20260504204712 80 205 0.0 0.0 0.00 0.00 0.00 26 1010.5
20260504204210 78 250 4.0 7.0 0.00 0.00 0.00 26 1010.3
20260504203709 78 282 2.0 3.0 0.00 0.00 0.00 27 1010.5
20260504203206 79 8 2.0 2.0 0.00 0.00 0.00 25 1010.5
20260504202706 79 291 4.0 7.0 0.00 0.00 0.00 25 1010.5
20260504202203 81 120 2.0 3.0 0.00 0.00 0.00 25 1010.8
20260504201700 80 120 0.0 0.0 0.00 0.00 0.00 26 1010.7
20260504201158 79 284 2.0 2.0 0.00 0.00 0.00 25 1010.7
20260504200655 80 291 6.0 8.0 0.00 0.00 0.00 21 1010.7
20260504200151 79 106 2.0 4.0 0.00 0.00 0.00 23 1010.8
20260504195647 77 145 0.0 0.0 0.00 0.00 0.00 29 1010.8
20260504195143 77 84 1.0 2.0 0.00 0.00 0.00 27 1011.0
20260504194641 77 95 1.0 2.0 0.00 0.00 0.00 26 1010.8
20260504194137 78 154 1.0 2.0 0.00 0.00 0.00 28 1011.1
20260504193633 79 258 1.0 3.0 0.00 0.00 0.00 30 1011.0
20260504193131 79 186 0.0 0.0 0.00 0.00 0.00 27 1011.1
20260504192629 80 139 0.0 1.0 0.00 0.00 0.00 29 1011.2
20260504192127 78 296 0.0 0.0 0.00 0.00 0.00 30 1011.4
20260504191625 77 242 0.0 0.0 0.00 0.00 0.00 31 1011.3
20260504191121 78 298 3.0 3.0 0.00 0.00 0.00 28 1011.4
20260504190617 78 89 0.0 0.0 0.00 0.00 0.00 32 1011.3
20260504190114 78 11 0.0 1.0 0.00 0.00 0.00 30 1011.4
20260504185610 77 344 1.0 2.0 0.00 0.00 0.00 31 1011.5
20260504185107 77 234 0.0 1.0 0.00 0.00 0.00 31 1011.6
20260504184602 76 203 0.0 0.0 0.00 0.00 0.00 30 1011.6
20260504184058 77 161 0.0 0.0 0.00 0.00 0.00 29 1011.7
20260504183555 77 34 0.0 0.0 0.00 0.00 0.00 30 1011.8
20260504183053 76 241 0.0 0.0 0.00 0.00 0.00 31 1012.0
20260504182550 77 248 3.0 4.0 0.00 0.00 0.00 30 1012.0
20260504182047 75 106 0.0 0.0 0.00 0.00 0.00 31 1012.2
20260504181544 75 111 0.0 0.0 0.00 0.00 0.00 30 1012.2
20260504181043 74 241 0.0 0.0 0.00 0.00 0.00 32 1012.3
20260504180541 76 268 8.0 10.0 0.00 0.00 0.00 29 1012.4
20260504180040 75 5 3.0 4.0 0.00 0.00 0.00 29 1012.0
20260504175536 75 232 2.0 4.0 0.00 0.00 0.00 29 1012.1
20260504175033 77 307 1.0 3.0 0.00 0.00 0.00 27 1012.3
20260504174531 73 53 0.0 0.0 0.00 0.00 0.00 32 1012.2
20260504174028 75 271 2.0 4.0 0.00 0.00 0.00 32 1012.4
20260504173525 74 285 4.0 7.0 0.00 0.00 0.00 32 1012.4
20260504173022 75 114 0.0 0.0 0.00 0.00 0.00 32 1012.3
20260504172518 74 182 0.0 0.0 0.00 0.00 0.00 33 1012.4
20260504172015 73 301 1.0 1.0 0.00 0.00 0.00 32 1012.4
20260504171512 75 22 0.0 0.0 0.00 0.00 0.00 31 1012.5
20260504171009 73 294 0.0 0.0 0.00 0.00 0.00 31 1012.5
20260504170504 77 319 1.0 2.0 0.00 0.00 0.00 31 1012.5
20260504160425 70 171 0.0 0.0 0.00 0.00 0.00 40 1013.7
20260504150848 66 177 0.0 0.0 0.00 0.00 0.00 51 1013.7
20260504150345 66 133 0.0 1.0 0.00 0.00 0.00 51 1013.7
20260504141315 62 255 1.0 2.0 0.00 0.00 0.00 59 1013.8
20260504140812 61 269 0.0 0.0 0.00 0.00 0.00 60 1013.9
20260504140307 60 226 0.0 0.0 0.00 0.00 0.00 63 1013.9
20260504130736 55 268 0.0 1.0 0.00 0.00 0.00 71 1013.6
20260504130232 55 186 0.0 0.0 0.00 0.00 0.00 74 1013.5
20260504120156 51 217 0.0 0.0 0.00 0.00 0.00 82 1013.3
20260504110623 48 149 0.0 0.0 0.00 0.00 0.00 86 1013.3
20260504110119 48 150 0.0 0.0 0.00 0.00 0.00 87 1013.2
20260504100545 49 149 0.0 0.0 0.00 0.00 0.00 84 1013.3
20260504081939 51 150 0.0 0.0 0.00 0.00 0.00 76 1012.9
20260504081436 51 153 0.0 0.0 0.00 0.00 0.00 77 1012.9
20260504080931 51 159 0.0 0.0 0.00 0.00 0.00 76 1012.8
20260504080428 51 159 0.0 0.0 0.00 0.00 0.00 76 1012.8